Voltar ao catálogo

PEGASUS DEB

AtivoPO
NORAD 24213·DEBRIS·🇺🇸 United States

Lançado May 19, 1994 de Vandenberg Space Force Base

Loading…

Próximas Passagens (próximas 24 horas)

TLE

AtualizadoSource: Space-Track

Época: Sep 14, 2026, 04:12 UTC

1 24213U 94029KL  26257.17560109  .00005368  00000-0  12067-2 0  9997
2 24213  81.4581  62.2611 0510132 170.9812 190.0972 13.98231707174538

Acompanhe PEGASUS DEB em tempo real com AllMySat

Download on the App Store